Time,TemperatureF,DewpointF,PressureIn,WindDirection,WindDirectionDegrees,WindSpeedMPH,WindSpeedGustMPH,Humidity,HourlyPrecipIn,Conditions,Clouds,dailyrainin,SoftwareType,DateUTC
2013-02-23 00:21:00,-999.0,-99.9,-100.00,NNE,22,3.0,-999.0,-999,-99.99,,,-99.99,,2013-02-23 08:21:00,
2013-02-23 00:53:00,-999.0,-99.9,-100.00,SSW,208,4.0,-999.0,-999,-99.99,,,-99.99,,2013-02-23 08:53:00,
2013-02-23 01:32:00,-999.0,-99.9,-100.00,SE,140,5.0,-999.0,-999,-99.99,,,-99.99,,2013-02-23 09:32:00,
2013-02-23 01:42:00,-999.0,-99.9,-100.00,SE,140,5.0,-999.0,-999,-99.99,,,-99.99,,2013-02-23 09:42:00,
2013-02-23 01:52:00,-999.0,-99.9,-100.00,SE,140,5.0,-999.0,-999,-99.99,,,-99.99,,2013-02-23 09:52:00,
2013-02-23 03:02:00,-999.0,-99.9,-100.00,ESE,106,4.0,-999.0,-999,-99.99,,,-99.99,,2013-02-23 11:02:00,
2013-02-23 03:42:00,-999.0,-99.9,-100.00,SE,135,4.0,-999.0,-999,-99.99,,,-99.99,,2013-02-23 11:42:00,
2013-02-23 03:53:00,-999.0,-99.9,-100.00,SE,135,4.0,-999.0,-999,-99.99,,,-99.99,,2013-02-23 11:53:00,
2013-02-23 04:02:00,-999.0,-99.9,-100.00,SE,135,4.0,-999.0,-999,-99.99,,,-99.99,,2013-02-23 12:02:00,
2013-02-23 05:32:00,-999.0,-99.9,-100.00,SW,236,1.0,-999.0,-999,-99.99,,,-99.99,,2013-02-23 13:32:00,
2013-02-23 06:50:00,-999.0,-99.9,-100.00,NNW,343,4.0,-999.0,37,-99.99,,,-99.99,,2013-02-23 14:50:00,
2013-02-23 07:11:00,-999.0,-99.9,-100.00,NNW,343,4.0,-999.0,37,-99.99,,,-99.99,,2013-02-23 15:11:00,
2013-02-23 07:22:00,-999.0,-99.9,-100.00,NNW,343,4.0,-999.0,37,-99.99,,,-99.99,,2013-02-23 15:22:00,
2013-02-23 07:32:00,-999.0,-99.9,-100.00,NNW,343,4.0,-999.0,37,-99.99,,,-99.99,,2013-02-23 15:32:00,
2013-02-23 07:42:00,-999.0,-99.9,-100.00,NNW,343,4.0,-999.0,37,-99.99,,,-99.99,,2013-02-23 15:42:00,
2013-02-23 08:01:00,-999.0,-99.9,-100.00,North,0,3.0,-999.0,-999,-99.99,,,-99.99,,2013-02-23 16:01:00,
2013-02-23 08:11:00,-999.0,-99.9,-100.00,North,0,3.0,-999.0,-999,-99.99,,,-99.99,,2013-02-23 16:11:00,
2013-02-23 08:22:00,-999.0,-99.9,-100.00,North,0,3.0,-999.0,-999,-99.99,,,-99.99,,2013-02-23 16:22:00,
2013-02-23 08:42:00,-999.0,-99.9,-100.00,West,270,3.0,-999.0,-999,-99.99,,,-99.99,,2013-02-23 16:42:00,
2013-02-23 08:52:00,-999.0,-99.9,-100.00,West,270,3.0,-999.0,-999,-99.99,,,-99.99,,2013-02-23 16:52:00,
2013-02-23 09:42:00,-999.0,-99.9,-100.00,ESE,112,11.0,-999.0,-999,-99.99,,,-99.99,,2013-02-23 17:42:00,
2013-02-23 09:52:00,-999.0,-99.9,-100.00,ENE,61,14.0,-999.0,-999,-99.99,,,-99.99,,2013-02-23 17:52:00,
2013-02-23 10:12:00,-999.0,-99.9,-100.00,ENE,78,19.0,-999.0,-999,-99.99,,,-99.99,,2013-02-23 18:12:00,
2013-02-23 10:22:00,-999.0,-99.9,-100.00,ENE,78,18.0,-999.0,-999,-99.99,,,-99.99,,2013-02-23 18:22:00,
2013-02-23 10:32:00,-999.0,-99.9,-100.00,SSE,151,21.0,-999.0,-999,-99.99,,,-99.99,,2013-02-23 18:32:00,
2013-02-23 10:42:00,-999.0,-99.9,-100.00,SSE,151,18.0,-999.0,-999,-99.99,,,-99.99,,2013-02-23 18:42:00,
2013-02-23 10:52:00,-999.0,-99.9,-100.00,East,90,17.0,-999.0,-999,-99.99,,,-99.99,,2013-02-23 18:52:00,
2013-02-23 11:12:00,-999.0,-99.9,-100.00,South,185,14.0,-999.0,-999,-99.99,,,-99.99,,2013-02-23 19:12:00,
2013-02-23 11:22:00,-999.0,-99.9,-100.00,SSE,157,15.0,-999.0,-999,-99.99,,,-99.99,,2013-02-23 19:22:00,
2013-02-23 11:32:00,-999.0,-99.9,-100.00,SSE,157,15.0,-999.0,-999,-99.99,,,-99.99,,2013-02-23 19:32:00,
2013-02-23 11:52:00,-999.0,-99.9,-100.00,NE,56,12.0,-999.0,-999,-99.99,,,-99.99,,2013-02-23 19:52:00,
2013-02-23 12:22:00,-999.0,-99.9,-100.00,NNE,22,15.0,-999.0,-999,-99.99,,,-99.99,,2013-02-23 20:22:00,
2013-02-23 12:42:00,-999.0,-99.9,-100.00,North,0,14.0,-999.0,-999,-99.99,,,-99.99,,2013-02-23 20:42:00,
2013-02-23 12:53:00,-999.0,-99.9,-100.00,North,0,14.0,-999.0,-999,-99.99,,,-99.99,,2013-02-23 20:53:00,
2013-02-23 13:02:00,-999.0,-99.9,-100.00,North,0,10.0,-999.0,-999,-99.99,,,-99.99,,2013-02-23 21:02:00,
2013-02-23 13:12:00,-999.0,-99.9,-100.00,North,0,10.0,-999.0,-999,-99.99,,,-99.99,,2013-02-23 21:12:00,
2013-02-23 13:22:00,-999.0,-99.9,-100.00,North,0,10.0,-999.0,-999,-99.99,,,-99.99,,2013-02-23 21:22:00,
2013-02-23 13:32:00,-999.0,-99.9,-100.00,North,0,9.0,-999.0,-999,-99.99,,,-99.99,,2013-02-23 21:32:00,
2013-02-23 13:52:00,-999.0,-99.9,-100.00,North,0,8.0,-999.0,-999,-99.99,,,-99.99,,2013-02-23 21:52:00,
2013-02-23 14:02:00,-999.0,-99.9,-100.00,North,0,13.0,-999.0,-999,-99.99,,,-99.99,,2013-02-23 22:02:00,
2013-02-23 14:22:00,-999.0,-99.9,-100.00,North,0,19.0,-999.0,-999,-99.99,,,-99.99,,2013-02-23 22:22:00,
2013-02-23 14:32:00,-999.0,-99.9,-100.00,North,0,15.0,-999.0,-999,-99.99,,,-99.99,,2013-02-23 22:32:00,
2013-02-23 15:02:00,-999.0,-99.9,-100.00,North,0,13.0,-999.0,-999,-99.99,,,-99.99,,2013-02-23 23:02:00,
2013-02-23 15:11:00,-999.0,-99.9,-100.00,North,0,11.0,-999.0,-999,-99.99,,,-99.99,,2013-02-23 23:11:00,
2013-02-23 15:22:00,-999.0,-99.9,-100.00,North,0,11.0,-999.0,-999,-99.99,,,-99.99,,2013-02-23 23:22:00,
2013-02-23 15:32:00,-999.0,-99.9,-100.00,North,0,11.0,-999.0,-999,-99.99,,,-99.99,,2013-02-23 23:32:00,
2013-02-23 15:42:00,-999.0,-99.9,-100.00,North,0,11.0,-999.0,-999,-99.99,,,-99.99,,2013-02-23 23:42:00,
2013-02-23 15:52:00,-999.0,-99.9,-100.00,North,0,11.0,-999.0,-999,-99.99,,,-99.99,,2013-02-23 23:52:00,
2013-02-23 16:02:00,-999.0,-99.9,-100.00,SW,225,14.0,-999.0,-999,-99.99,,,-99.99,,2013-02-24 00:02:00,
2013-02-23 16:11:00,-999.0,-99.9,-100.00,North,0,14.0,-999.0,-999,-99.99,,,-99.99,,2013-02-24 00:11:00,
2013-02-23 16:22:00,-999.0,-99.9,-100.00,North,0,14.0,-999.0,-999,-99.99,,,-99.99,,2013-02-24 00:22:00,
2013-02-23 16:32:00,-999.0,-99.9,-100.00,North,0,16.0,-999.0,-999,-99.99,,,-99.99,,2013-02-24 00:32:00,
2013-02-23 16:42:00,-999.0,-99.9,-100.00,North,0,17.0,-999.0,-999,-99.99,,,-99.99,,2013-02-24 00:42:00,
2013-02-23 16:52:00,-999.0,-99.9,-100.00,North,0,16.0,-999.0,-999,-99.99,,,-99.99,,2013-02-24 00:52:00,
2013-02-23 17:01:00,-999.0,-99.9,-100.00,NNE,16,12.0,-999.0,-999,-99.99,,,-99.99,,2013-02-24 01:01:00,
2013-02-23 17:11:00,-999.0,-99.9,-100.00,North,0,14.0,-999.0,-999,-99.99,,,-99.99,,2013-02-24 01:11:00,
2013-02-23 17:22:00,-999.0,-99.9,-100.00,North,0,14.0,-999.0,-999,-99.99,,,-99.99,,2013-02-24 01:22:00,
2013-02-23 17:42:00,-999.0,-99.9,-100.00,NNE,28,11.0,-999.0,-999,-99.99,,,-99.99,,2013-02-24 01:42:00,
2013-02-23 17:52:00,-999.0,-99.9,-100.00,North,5,10.0,-999.0,-999,-99.99,,,-99.99,,2013-02-24 01:52:00,
2013-02-23 18:01:00,-999.0,-99.9,-100.00,North,5,10.0,-999.0,-999,-99.99,,,-99.99,,2013-02-24 02:01:00,
2013-02-23 18:22:00,-999.0,-99.9,-100.00,North,0,11.0,-999.0,-999,-99.99,,,-99.99,,2013-02-24 02:22:00,
2013-02-23 18:32:00,-999.0,-99.9,-100.00,North,0,11.0,-999.0,-999,-99.99,,,-99.99,,2013-02-24 02:32:00,
2013-02-23 18:52:00,-999.0,-99.9,-100.00,North,0,13.0,-999.0,-999,-99.99,,,-99.99,,2013-02-24 02:52:00,
2013-02-23 19:02:00,-999.0,-99.9,-100.00,WSW,253,15.0,-999.0,-999,-99.99,,,-99.99,,2013-02-24 03:02:00,
2013-02-23 19:12:00,-999.0,-99.9,-100.00,WSW,253,13.0,-999.0,-999,-99.99,,,-99.99,,2013-02-24 03:12:00,
2013-02-23 19:22:00,-999.0,-99.9,-100.00,North,0,17.0,-999.0,-999,-99.99,,,-99.99,,2013-02-24 03:22:00,
2013-02-23 19:32:00,-999.0,-99.9,-100.00,SSW,213,18.0,-999.0,-999,-99.99,,,-99.99,,2013-02-24 03:32:00,
2013-02-23 19:42:00,-999.0,-99.9,-100.00,SSW,213,19.0,-999.0,-999,-99.99,,,-99.99,,2013-02-24 03:42:00,
2013-02-23 19:52:00,-999.0,-99.9,-100.00,North,0,17.0,-999.0,-999,-99.99,,,-99.99,,2013-02-24 03:52:00,
2013-02-23 20:02:00,-999.0,-99.9,-100.00,SSW,208,20.0,-999.0,-999,-99.99,,,-99.99,,2013-02-24 04:02:00,
2013-02-23 20:11:00,-999.0,-99.9,-100.00,North,0,23.0,-999.0,-999,-99.99,,,-99.99,,2013-02-24 04:11:00,
2013-02-23 20:22:00,-999.0,-99.9,-100.00,North,0,23.0,-999.0,-999,-99.99,,,-99.99,,2013-02-24 04:22:00,
2013-02-23 20:32:00,-999.0,-99.9,-100.00,East,95,19.0,-999.0,-999,-99.99,,,-99.99,,2013-02-24 04:32:00,
2013-02-23 20:42:00,-999.0,-99.9,-100.00,SE,135,21.0,-999.0,-999,-99.99,,,-99.99,,2013-02-24 04:42:00,
2013-02-23 20:52:00,-999.0,-99.9,-100.00,SE,135,21.0,-999.0,-999,-99.99,,,-99.99,,2013-02-24 04:52:00,
2013-02-23 21:01:00,-999.0,-99.9,-100.00,South,191,20.0,-999.0,-999,-99.99,,,-99.99,,2013-02-24 05:01:00,
2013-02-23 21:11:00,-999.0,-99.9,-100.00,South,191,18.0,-999.0,-999,-99.99,,,-99.99,,2013-02-24 05:11:00,
2013-02-23 21:22:00,-999.0,-99.9,-100.00,WSW,241,17.0,-999.0,-999,-99.99,,,-99.99,,2013-02-24 05:22:00,
2013-02-23 21:32:00,-999.0,-99.9,-100.00,ENE,61,16.0,-999.0,-999,-99.99,,,-99.99,,2013-02-24 05:32:00,
2013-02-23 21:42:00,-999.0,-99.9,-100.00,ENE,61,18.0,-999.0,-999,-99.99,,,-99.99,,2013-02-24 05:42:00,
2013-02-23 21:52:00,-999.0,-99.9,-100.00,ENE,61,18.0,-999.0,-999,-99.99,,,-99.99,,2013-02-24 05:52:00,
2013-02-23 22:02:00,-999.0,-99.9,-100.00,South,185,14.0,-999.0,-999,-99.99,,,-99.99,,2013-02-24 06:02:00,
2013-02-23 22:12:00,-999.0,-99.9,-100.00,SE,140,11.0,-999.0,-999,-99.99,,,-99.99,,2013-02-24 06:12:00,
2013-02-23 22:22:00,-999.0,-99.9,-100.00,SSW,208,12.0,-999.0,-999,-99.99,,,-99.99,,2013-02-24 06:22:00,
2013-02-23 22:32:00,-999.0,-99.9,-100.00,SE,146,14.0,-999.0,-999,-99.99,,,-99.99,,2013-02-24 06:32:00,
2013-02-23 22:42:00,-999.0,-99.9,-100.00,SE,146,17.0,-999.0,-999,-99.99,,,-99.99,,2013-02-24 06:42:00,
2013-02-23 22:52:00,-999.0,-99.9,-100.00,SE,146,18.0,-999.0,-999,-99.99,,,-99.99,,2013-02-24 06:52:00,
2013-02-23 23:01:00,-999.0,-99.9,-100.00,SE,146,16.0,-999.0,-999,-99.99,,,-99.99,,2013-02-24 07:01:00,
2013-02-23 23:12:00,-999.0,-99.9,-100.00,North,11,12.0,-999.0,-999,-99.99,,,-99.99,,2013-02-24 07:12:00,
2013-02-23 23:22:00,-999.0,-99.9,-100.00,North,0,12.0,-999.0,-999,-99.99,,,-99.99,,2013-02-24 07:22:00,
2013-02-23 23:32:00,-999.0,-99.9,-100.00,South,185,15.0,-999.0,-999,-99.99,,,-99.99,,2013-02-24 07:32:00,